リニア彗星

C/2003 G2 ( LINEAR )

English version
Home page
Updated on October 10, 2003

---------------------------------------------------------------------

・ プロフィール

発見日 2003年4月8日
発見光度 18.2等
発見者 Lincoln Laboratory Near-Earth Asteroid Research project

・ 軌道要素

T 2003 Apr. 29.8899 TT                                  MPC
q   1.553788             (2000.0)            P               Q
                   Peri.  190.6530      -0.9020995      +0.1239787
                   Node    24.5677      -0.2851176      +0.5477482
e   1.0            Incl.   96.2024      -0.3239204      -0.8274063
>From 98 observations 2003 Apr. 8-May 2.

・ 星図

・ 光度変化

        m1 = 16.5 + 5 logΔ + 10.0 log r

---------------------------------------------------------------------

軌道要素はM.P.E.C. 2003-J29に掲載されたものです。
星図は StellaNavigator Ver.2.0 for Windows (アストロアーツ 編著 / アスキー出版局刊) で作成したものです。
光度グラフはComet for Windowsで作成したものです。

---------------------------------------------------------------------

Copyright(C) Seiichi Yoshida (comet@aerith.net). All rights reserved.